Location: Sweet Grass
(48.9965°N, 111.9649°W)
Time: 02:58:25
(UTC+00:00)

RS-44 - Visible Passes

Search period start: 29 March 2023 00:00
Search period end: 08 April 2023 00:00
Orbit: 1174 x 1511 km, 82.5° (Epoch: 28 March)

Date Brightness Start Highest point End Pass type
(mag) Time Alt. Az. Time Alt. Az. Time Alt. Az.
29 Mar ? 06:22:18 10° NNE 06:25:55 13° NE 06:29:35 10° ENE visible
29 Mar ? 08:13:40 10° N 08:21:34 52° ENE 08:22:46 49° E visible
29 Mar ? 10:07:23 10° NNW 10:14:54 42° W 10:15:20 42° W visible
30 Mar ? 06:44:58 10° N 06:50:35 20° NE 06:53:43 16° E visible
30 Mar ? 08:37:20 10° N 08:45:32 74° ENE 08:46:18 70° ESE visible
30 Mar ? 10:31:38 10° NNW 10:38:21 29° W 10:38:52 29° W visible
31 Mar ? 07:08:12 10° N 07:15:03 28° ENE 07:17:16 25° E visible
31 Mar ? 09:01:09 10° NNW 09:09:23 80° W 09:09:51 77° SW visible
31 Mar ? 10:56:15 10° NW 11:01:37 19° WNW 11:02:25 19° W visible
01 Apr ? 07:31:40 10° N 07:39:19 40° ENE 07:40:49 37° E visible
01 Apr ? 09:25:04 10° NNW 09:33:04 56° W 09:33:24 56° W visible
01 Apr ? 11:21:54 10° NW 11:24:44 12° WNW 11:26:00 12° W visible
02 Apr ? 06:03:29 10° NNE 06:07:55 15° NE 06:11:49 11° ENE visible
02 Apr ? 07:55:16 10° N 08:03:25 57° ENE 08:04:24 54° E visible
02 Apr ? 09:49:09 10° NNW 09:56:37 39° W 09:56:59 39° W visible
03 Apr ? 06:26:25 10° N 06:32:33 22° ENE 06:35:24 19° E visible
03 Apr ? 08:18:59 10° N 08:27:22 81° E 08:28:00 76° SE visible
03 Apr ? 10:13:28 10° NNW 10:20:00 26° W 10:20:35 26° W visible
04 Apr ? 06:49:45 10° N 06:56:58 31° ENE 06:59:01 28° E visible
04 Apr ? 08:42:50 10° NNW 08:51:10 73° W 08:51:36 72° WSW visible
04 Apr ? 10:38:13 10° NW 10:43:14 18° WNW 10:44:11 17° W visible
05 Apr ? 05:22:34 10° NNE 05:25:08 11° NE 05:27:44 10° ENE visible
05 Apr ? 07:13:16 10° N 07:21:13 44° ENE 07:22:38 42° E visible
05 Apr ? 09:06:48 10° NNW 09:14:49 51° W 09:15:13 51° W visible
05 Apr ? 11:04:37 10° WNW 11:06:17 11° WNW 11:07:48 10° WNW visible
06 Apr ? 05:44:48 10° NNE 05:49:56 17° NE 05:53:40 13° E visible
06 Apr ? 07:36:55 10° N 07:45:16 63° ENE 07:46:16 60° ESE visible
06 Apr ? 09:30:56 10° NNW 09:38:19 35° W 09:38:51 35° W visible
07 Apr ? 06:07:55 10° N 06:14:32 24° ENE 06:17:19 21° E visible
07 Apr ? 08:00:41 10° N 08:09:12 88° E 08:09:54 78° SSE visible
07 Apr ? 09:55:20 10° NNW 10:01:40 24° WNW 10:02:30 24° W visible
